Location: G�ndlingen
(48.0142°N, 7.6396°E)
Time: 17:47:33
(UTC+00:00)

Cosmos 1408 Rocket - Pass Details

Date: 05 July 2020
Orbit: 601 x 630 km, 82.6° (Epoch: 12 August)

Event Time Altitude Azimuth Distance (km) Brightness Sun altitude
Exits shadow 23:35:55 42° 210° (SSW) 882 3.9 -19.3°
Maximum altitude 23:37:17 70° 280° (W) 659 3.6 -19.3°
Drops below altitude 10° 23:41:43 10° 5° (N) 2,001 7.4 -19.3°
Sets 23:43:59 0° 8° (N) 2,917 8.7 -19.3°
